Home > Weather > Trier > Past weeks

Flag for Germany Past Weather in Trier, Rhineland-Palatinate, Germany — Yesterday and Last 2 Weeks

Now
63 °F

Broken clouds.


Feels Like: 63 °F
Forecast: 57 / 71 °F
Wind: 9 mph from West

Location: Spangdahlem

Current Time: Jun 30, 2016 at 2:13:10 PM

Latest Report: Jun 30, 2016 at 12:59 PM


Visibility: N/A

Pressure: 29.99 "Hg

Humidity: 83%

Dew Point: 57 °F

Location of TrierLocation

Past Weather in Trier — Graph

°F

Trier Temperature Yesterday

Maximum temperature yesterday: 70 °F (at 2:58 PM)
Minimum temperature yesterday: 59 °F (at 4:58 AM)
Average temperature yesterday: 64 °F

High & Low Weather Summary for the Past Weeks

 TemperatureHumidityPressure
High88 °F (Jun 23, 4:58 PM)100% (Jun 16, 12:58 AM)30.25 "Hg (Jun 16, 12:58 AM)
Low43 °F (Jun 20, 5:58 AM)45% (Jun 29, 5:58 PM)29.51 "Hg (Jun 15, 4:58 PM)
Average60 °F83%29.98 "Hg
* Reported Jun 15 12:04 PM — Jun 30 12:58 PM, Trier, Weather by CustomWeather, © 2016

Note: Actual official high and low records may vary slightly from our data, if they occured in-between our weather recording intervals... More about our weather records

Advertising

Trier Weather History for the Previous 24 Hours

Scroll right to see more
 ConditionsComfort  
Time TempWeatherWind HumidityBarometerVisibility
12:58 PM
Thu, Jun 30
61 °FLight rain. Broken clouds.10 mph88%29.94 "HgN/A
12:04 PM64 °FBroken clouds.14 mph73%29.97 "HgN/A
11:00 AM64 °FPartly sunny.15 mph73%29.97 "HgN/A
9:58 AM62 °FScattered clouds.9 mph74%29.92 "HgN/A
8:58 AM59 °FPartly sunny.12 mph81%29.91 "HgN/A
7:58 AM57 °FPartly sunny.8 mph88%29.91 "HgN/A
6:58 AM59 °FLight rain. Partly sunny.6 mph82%29.88 "HgN/A
5:58 AM59 °FPassing clouds.7 mph88%29.88 "HgN/A
4:58 AM59 °FPassing clouds.8 mph88%29.86 "HgN/A
3:58 AM61 °FMostly cloudy.7 mph83%29.85 "HgN/A
2:58 AM61 °FPassing clouds.6 mph80%29.85 "HgN/A
1:58 AM61 °FPassing clouds.5 mph77%29.85 "HgN/A
11:58 PM
Wed, Jun 29
62 °FClear.5 mph70%29.88 "HgN/A
11:04 PM63 °FPassing clouds.3 mph68%29.93 "HgN/A
10:03 PM63 °FLight rain. Passing clouds.2 mph64%29.93 "Hg2 mi
9:58 PM63 °FLight rain. Sunny.2 mph64%29.88 "Hg4 mi
8:58 PM64 °FSunny.5 mph62%29.88 "HgN/A
7:58 PM67 °FSunny.7 mph54%29.88 "HgN/A
6:58 PM68 °FSunny.6 mph49%29.88 "HgN/A
5:58 PM68 °FPassing clouds.9 mph45%29.88 "HgN/A
4:58 PM70 °FSunny.10 mph46%29.88 "HgN/A
3:58 PM68 °FPassing clouds.8 mph47%29.90 "HgN/A
2:58 PM70 °FPassing clouds.13 mph46%29.91 "HgN/A
Weather by CustomWeather, © 2016

See weather overviewHow to use our weather pages